Charleston, SC

5:39 PM EST on February 10, 2016 (GMT -0500)
Charleston Air Force Base-International

Weather History for KCHS - October, 2011

Change the Weather History Date:

Sunday, October 23, 2011

  Actual Average Record
Temperature  
Mean Temperature 60 °F 65 °F  
Max Temperature 74 °F 75 °F 86 °F (1966)
Min Temperature 45 °F 54 °F 33 °F (1974)
Degree Days  
Heating Degree Days 5 3  
Month to date heating degree days 52 37  
Since 1 July heating degree days 52 40  
Cooling Degree Days 0 3  
Month to date cooling degree days 72 108  
Year to date cooling degree days 2659 2246  
Growing Degree Days 9 (Base 50)    
Moisture  
Dew Point 50 °F    
Average Humidity 73    
Maximum Humidity 100    
Minimum Humidity 46    
Precipitation  
Precipitation 0.00 in 0.10 in 1.96 in (1983)
Month to date precipitation 1.90 3.01  
Year to date precipitation 34.95 44.75  
Snow  
Snow 0.00 in 0.00 in - ()
Month to date snowfall 0.0  
Since 1 July snowfall 0.0 0.0  
Since 1 September snowfall 0.0 0.0  
Snow Depth 0.00 in    
Sea Level Pressure  
Sea Level Pressure 30.08 in    
Wind  
Wind Speed 4 mph (North)    
Max Wind Speed 12 mph    
Max Gust Speed 15 mph    
Visibility 10 miles    
Events      
T = Trace of Precipitation, MM = Missing Value Source: NWS Daily Summary

Daily Weather History Graph

Daily Weather History Graph

Search for Another Location

Airport or City:

Trip Planner

Search our weather history database for the weather conditions in past years. The results will help you decide how hot, cold, wet, or windy it might be!

Date:

Astronomy

Oct. 23, 2011 Rise Set
Actual Time 7:30 AM EDT 6:38 PM EDT
Civil Twilight 7:05 AM EDT 7:03 PM EDT
Nautical Twilight 6:36 AM EDT 7:32 PM EDT
Astronomical Twilight 6:07 AM EDT 8:00 PM EDT
Moon 3:46 AM EDT (10/23) 4:19 PM EDT (10/23)
Length of Visible Light 11h 58m
Length of Day
11h 07m
Waning Crescent, 14% of the Moon is Illuminated
Oct 23
Waning Crescent
Oct 26
New
Nov 2
First Quarter
Nov 10
Full
Nov 18
Last Quarter

Hourly Weather History & Observations

Time (EDT) Temp. Windchill Dew Point Humidity Pressure Visibility Wind Dir Wind Speed Gust Speed Precip Events Conditions
12:56 AM 51.1 °F - 45.0 °F 80% 30.08 in 10.0 mi NNE 4.6 mph - N/A   Clear
1:56 AM 50.0 °F - 45.0 °F 83% 30.08 in 10.0 mi Calm Calm - N/A   Clear
2:56 AM 46.9 °F - 45.0 °F 93% 30.07 in 10.0 mi NNW 3.5 mph - N/A   Clear
3:56 AM 46.0 °F - 44.1 °F 93% 30.07 in 10.0 mi Calm Calm - N/A   Clear
4:56 AM 46.0 °F 43.9 °F 44.1 °F 93% 30.06 in 10.0 mi North 4.6 mph - N/A   Clear
5:56 AM 46.9 °F - 45.0 °F 93% 30.07 in 10.0 mi North 4.6 mph - N/A   Scattered Clouds
6:56 AM 45.0 °F 42.6 °F 44.1 °F 97% 30.06 in 10.0 mi North 4.6 mph - N/A   Partly Cloudy
7:56 AM 46.9 °F - 45.0 °F 93% 30.09 in 10.0 mi North 4.6 mph - N/A   Partly Cloudy
8:56 AM 52.0 °F - 48.9 °F 89% 30.12 in 10.0 mi North 4.6 mph - N/A   Mostly Cloudy
9:56 AM 59.0 °F - 50.0 °F 72% 30.12 in 10.0 mi North 3.5 mph - N/A   Partly Cloudy
10:56 AM 64.9 °F - 50.0 °F 58% 30.12 in 10.0 mi ENE 8.1 mph - N/A   Partly Cloudy
11:56 AM 68.0 °F - 51.1 °F 55% 30.11 in 10.0 mi North 8.1 mph - N/A   Partly Cloudy
12:56 PM 70.0 °F - 51.1 °F 51% 30.10 in 10.0 mi NNE 9.2 mph - N/A   Scattered Clouds
1:56 PM 72.0 °F - 52.0 °F 49% 30.07 in 10.0 mi Variable 4.6 mph - N/A   Partly Cloudy
2:56 PM 73.0 °F - 53.1 °F 49% 30.06 in 10.0 mi NNW 8.1 mph - N/A   Partly Cloudy
3:56 PM 73.0 °F - 52.0 °F 48% 30.04 in 10.0 mi NNW 4.6 mph - N/A   Partly Cloudy
4:56 PM 72.0 °F - 52.0 °F 49% 30.04 in 10.0 mi NE 4.6 mph - N/A   Partly Cloudy
5:56 PM 70.0 °F - 52.0 °F 53% 30.04 in 10.0 mi NE 3.5 mph - N/A   Partly Cloudy
6:56 PM 64.9 °F - 54.0 °F 68% 30.05 in 10.0 mi East 5.8 mph - N/A   Partly Cloudy
7:56 PM 63.0 °F - 54.0 °F 72% 30.07 in 10.0 mi ENE 3.5 mph - N/A   Partly Cloudy
8:56 PM 62.1 °F - 55.0 °F 78% 30.09 in 10.0 mi Calm Calm - N/A   Scattered Clouds
9:56 PM 59.0 °F - 55.0 °F 87% 30.10 in 10.0 mi Calm Calm - N/A   Mostly Cloudy
10:56 PM 57.9 °F - 55.0 °F 90% 30.10 in 10.0 mi Calm Calm - N/A   Scattered Clouds
11:56 PM 57.0 °F - 55.0 °F 93% 30.09 in 10.0 mi NNW 3.5 mph - N/A   Scattered Clouds